Wind_Speed
21 23 26 27 26 24 22 19 18 16 16 17 18 19 20 22 25 24 22 23 24 25 27 28 28 29 26 23 24 25 26 26 26 26 25 25 24 22 18 16 16 16 15 14 14 15 14 13 13 13 14 14 13 12 11 10 10 11 11 11 10 10 10 10 9 8 8 8 7 7 7 7 6 5 4 3 2 2 1 1 1 1 2 3 4 4
25 28 29 26 23 22 19 18 18 19 19 20 21 21 22 25 27 25 24 25 25 27 27 26 27 28 25 23 25 26 26 26 26 25 24 24 23 20 16 15 15 15 15 14 14 15 16 16 16 15 15 14 12 11 11 11 11 12 12 12 12 12 11 11 10 10 9 9 8 8 8 7 7 6 5 5 4 3 3 3 2 2 2 3 4 4
29 32 29 24 23 22 20 20 20 21 22 22 23 24 25 27 27 24 23 23 22 23 23 23 26 27 25 25 26 26 26 25 24 23 23 23 21 18 16 14 14 14 14 14 15 16 17 18 18 17 16 15 13 11 12 13 13 14 14 14 14 14 13 13 12 11 11 10 10 9 9 9 9 8 8 7 7 6 6 5 5 5 5 5 6 7
31 29 24 20 21 21 20 21 21 23 25 26 26 27 28 28 25 22 21 21 21 22 24 25 28 29 27 26 26 25 25 23 21 21 21 20 19 17 16 15 14 15 15 16 17 17 18 19 19 18 16 15 13 13 14 15 15 16 16 16 16 16 15 14 14 13 12 12 12 11 11 10 10 10 10 9 9 8 8 7 7 7 7 7 8 9
32 29 25 24 22 21 21 21 22 24 25 25 26 28 28 26 23 23 22 22 24 25 26 25 25 27 23 18 17 17 18 18 18 19 18 17 17 17 17 17 16 16 17 18 18 18 19 19 18 17 16 15 14 14 16 17 17 18 18 18 17 17 16 16 15 14 13 13 12 12 12 11 11 11 11 10 9 9 9 9 9 8 8 8 9 9
32 30 30 30 28 26 26 27 26 26 26 27 28 29 27 24 23 23 22 21 22 22 22 17 12 11 7 4 4 6 9 11 14 15 15 15 16 17 17 18 18 18 19 20 20 20 19 18 18 17 16 15 14 15 17 18 19 19 19 19 19 18 17 16 15 14 13 13 13 13 13 12 12 11 11 11 11 10 10 9 9 9 9 9 10 11
33 31 31 30 29 29 29 30 29 28 28 29 30 29 25 23 21 18 17 16 14 14 14 13 9 7 10 11 10 11 12 12 12 12 13 14 14 15 17 18 19 19 21 22 22 22 20 18 18 17 17 15 15 16 18 19 20 20 20 19 19 18 18 16 16 15 14 14 14 14 14 14 13 13 12 12 12 11 10 10 10 10 11 12 13 14
32 29 28 27 27 28 30 30 28 28 28 28 29 26 22 20 18 16 15 14 15 16 16 19 19 16 19 21 18 16 17 16 15 15 14 14 14 15 17 18 20 21 22 23 23 22 21 19 18 17 17 16 16 18 19 20 21 21 20 20 19 18 18 17 16 16 15 15 15 15 15 15 15 14 14 13 12 12 12 12 12 13 14 16 18 20
30 26 24 24 24 26 27 26 25 25 26 26 25 22 19 16 15 15 15 15 16 17 18 22 20 13 13 16 15 15 17 15 14 14 14 14 15 16 17 18 19 21 22 23 22 22 21 20 19 18 17 17 18 19 20 21 21 22 21 21 20 19 19 18 18 17 16 16 16 16 16 15 15 15 14 13 13 13 13 14 16 18 20 23 25 28
29 27 26 24 25 25 23 21 22 23 23 23 22 21 18 16 15 14 13 14 14 13 16 21 20 12 9 13 14 14 13 10 10 11 11 11 12 13 14 16 19 21 22 22 22 21 20 19 19 19 18 18 19 20 21 22 22 23 22 22 21 21 21 20 19 18 17 17 17 16 17 16 16 15 14 14 15 16 18 20 22 24 27 30 32 33
31 30 28 27 26 24 22 20 20 20 21 20 18 17 15 13 13 11 11 12 9 8 14 18 21 17 7 4 8 8 6 6 10 11 9 8 9 11 13 16 18 20 22 22 22 21 19 19 19 19 19 19 20 21 22 23 24 23 23 23 22 22 22 21 20 19 19 19 19 19 18 18 17 17 17 18 20 22 25 27 29 31 33 35 36 36
32 31 30 30 28 26 23 21 20 19 20 19 17 15 11 7 6 7 8 8 5 5 7 10 16 21 13 5 5 6 9 13 15 10 8 8 9 12 14 17 18 19 21 22 22 21 20 20 20 20 20 20 21 22 23 24 25 25 24 24 24 23 23 22 21 21 20 20 21 21 21 21 20 20 21 22 25 28 31 33 34 36 37 37 37 37
30 31 30 29 28 27 25 22 20 20 19 18 18 17 11 3 1 4 4 4 6 8 8 8 11 16 21 18 10 8 11 16 14 7 7 7 10 13 15 17 18 19 21 22 21 21 20 19 20 20 20 21 22 23 24 25 26 26 26 26 25 24 24 23 23 22 22 22 22 22 23 23 22 23 24 27 30 34 36 37 38 38 38 38 37 37
24 24 27 29 29 28 28 27 24 22 20 20 21 20 13 5 2 3 4 2 6 9 10 11 9 11 18 19 17 16 15 15 13 8 7 9 12 15 16 17 18 19 20 21 21 20 20 20 21 21 21 22 23 24 25 26 28 28 28 27 27 26 25 25 24 24 23 24 24 24 24 24 24 26 28 32 35 37 38 39 39 39 39 39 38 37
16 14 19 24 26 25 27 29 26 21 18 18 21 22 18 13 7 4 4 3 2 3 6 10 7 7 7 5 10 18 19 16 12 10 12 15 15 16 17 18 18 19 20 21 21 21 21 21 20 20 21 22 23 24 26 28 30 31 30 29 28 27 26 26 25 25 25 25 25 25 25 26 28 31 34 36 38 39 39 38 38 39 38 38 37 36
16 14 14 16 20 21 22 25 27 25 18 15 19 22 22 22 16 8 4 5 4 4 4 10 11 10 10 7 8 13 15 14 12 13 15 15 15 16 17 17 18 19 21 22 22 20 18 17 18 19 21 23 24 26 28 31 32 32 31 30 29 29 28 28 27 27 27 27 27 27 28 30 32 35 37 38 38 37 37 37 38 38 38 37 36 35
16 16 16 16 17 19 20 21 26 28 23 18 22 26 25 24 21 12 6 6 5 5 7 11 14 17 17 16 16 14 13 12 12 13 12 13 15 16 16 17 18 20 22 21 18 15 15 17 20 22 24 26 28 29 31 32 33 33 32 31 31 30 30 30 29 29 29 29 29 30 32 34 36 37 37 37 37 37 37 37 37 37 37 36 36 35
17 13 14 17 18 20 21 21 23 28 27 23 23 25 24 20 19 14 5 2 1 3 7 10 15 18 15 14 16 14 11 10 11 10 9 11 13 14 14 15 17 19 19 16 15 16 20 22 24 26 28 29 30 32 33 33 33 33 33 33 32 32 32 31 31 31 31 31 32 33 35 37 38 38 38 38 38 39 39 39 38 37 36 36 35 35
22 15 13 16 17 18 22 23 22 25 28 28 25 23 20 15 13 14 8 2 2 2 5 7 12 17 17 16 14 11 8 6 8 7 7 9 10 11 12 13 16 18 17 17 19 22 24 25 26 27 29 31 32 33 34 34 34 34 34 34 34 33 32 32 32 32 32 33 35 36 38 38 38 38 39 39 40 40 40 40 39 39 38 37 36 35
26 20 14 16 19 19 23 27 27 27 28 31 29 24 21 15 11 15 15 8 4 3 4 5 6 9 11 11 8 6 5 6 8 8 9 12 12 10 11 14 17 18 18 20 22 23 24 25 26 28 29 32 33 34 34 34 35 35 35 35 34 33 32 32 32 33 34 36 37 38 39 38 38 38 39 39 39 40 40 40 39 38 38 37 35 34
29 25 19 18 22 23 26 29 30 30 29 31 31 28 27 23 16 14 18 17 10 3 2 2 5 5 5 6 6 3 8 10 11 12 14 16 14 12 14 16 18 18 19 21 22 23 24 25 26 28 29 32 33 34 35 35 36 36 36 35 34 32 32 33 34 36 38 39 40 40 39 37 37 37 38 39 39 40 39 39 39 38 37 35 34 33
33 31 26 24 26 29 31 30 29 29 30 30 30 30 29 28 24 14 11 19 20 13 7 3 7 11 6 6 4 11 14 14 15 17 17 15 14 15 17 18 18 20 21 22 22 21 23 24 26 28 30 31 32 34 36 37 38 37 36 34 33 33 34 35 38 39 41 41 41 40 38 36 36 37 38 39 39 39 39 39 38 37 36 34 33 33
36 33 30 29 30 30 29 29 28 28 30 30 30 30 27 29 33 24 12 15 19 20 18 7 9 20 16 11 16 21 21 20 20 18 16 16 18 19 20 20 21 22 21 20 20 21 23 25 26 29 31 32 34 37 39 39 38 37 36 35 34 35 36 39 41 41 41 40 39 37 36 35 36 37 37 38 38 38 38 38 37 35 34 33 33 32
37 33 30 27 26 26 27 30 29 26 28 31 31 33 32 32 34 32 27 22 16 19 19 8 7 21 20 18 22 21 23 25 22 20 20 22 24 22 19 19 19 18 18 18 20 22 24 26 28 30 32 34 36 38 39 39 37 36 36 36 37 39 42 43 42 41 39 38 36 35 34 35 36 37 37 37 37 37 36 35 34 33 32 32 32 31
36 35 30 19 10 12 17 20 24 26 28 31 33 35 36 35 32 32 34 28 19 20 21 12 12 23 25 24 23 22 26 28 24 24 27 27 24 20 17 18 19 19 19 20 22 24 26 28 30 31 33 36 38 39 38 37 36 36 37 39 42 44 45 43 39 37 36 35 35 35 35 36 37 37 37 37 36 35 34 33 32 31 31 31 31 31
34 38 37 25 13 10 11 14 23 32 34 34 36 35 33 34 34 34 34 29 19 18 22 22 23 30 36 36 32 31 34 30 27 30 31 28 24 22 23 24 24 24 23 22 24 25 26 28 30 31 34 36 36 35 35 35 36 38 41 42 43 43 43 40 36 35 35 35 36 36 36 37 37 37 36 35 34 33 32 31 31 31 31 31 31 32
31 38 40 38 33 28 24 22 24 28 31 33 36 35 35 35 36 37 34 32 27 18 22 35 35 32 40 44 39 39 39 34 33 34 33 32 31 31 31 30 29 27 26 25 25 26 27 28 29 31 31 31 30 31 33 35 38 40 42 42 41 41 42 41 38 37 37 37 37 37 37 37 36 35 34 33 32 31 31 31 31 31 31 32 33 35
30 35 38 39 39 36 32 26 23 22 23 26 29 31 34 35 38 41 39 38 36 24 25 40 38 33 42 45 39 40 39 36 36 36 37 38 37 35 34 32 31 30 28 26 26 26 26 26 27 27 27 28 29 32 35 37 39 41 42 41 40 40 42 43 41 39 39 38 38 37 37 36 35 34 32 31 31 31 31 31 32 32 32 34 36 38
32 34 36 35 34 35 32 29 28 25 22 22 23 25 29 31 36 42 42 42 42 35 34 42 39 39 47 44 38 38 38 38 40 41 42 41 38 36 35 34 34 31 27 26 26 26 26 26 27 27 29 31 32 34 36 38 40 41 41 40 40 40 42 43 42 41 40 40 39 38 37 35 33 32 31 30 30 31 32 32 33 34 35 36 39 40
34 34 35 34 34 35 33 32 32 30 28 29 30 31 34 35 36 38 38 39 42 42 43 42 40 45 48 42 39 41 40 42 43 42 41 40 39 39 38 37 34 30 28 29 29 30 31 32 33 33 33 33 34 35 36 38 40 42 42 42 43 43 44 43 42 41 41 41 39 38 36 33 31 30 29 30 30 32 33 34 35 37 38 40 40 40
35 35 34 34 34 35 37 36 34 34 33 34 37 39 38 37 36 37 36 36 37 40 42 42 43 49 51 46 45 44 42 42 41 40 40 40 40 39 38 36 34 32 32 33 34 35 36 36 37 36 36 35 36 38 40 40 41 41 42 44 46 46 46 44 42 42 42 41 38 36 34 31 29 28 29 30 31 33 34 36 38 40 41 41 40 39
37 35 34 32 28 31 37 34 32 35 32 34 44 45 39 38 40 40 39 38 40 43 44 44 47 52 52 48 45 42 40 39 38 38 38 39 39 39 38 37 35 34 34 34 34 35 34 34 34 34 34 34 36 38 39 39 40 41 42 43 44 44 44 43 43 43 42 39 36 34 32 30 29 29 29 31 33 35 37 39 41 41 41 40 39 38
37 36 35 32 25 26 30 27 27 26 20 28 47 47 39 40 42 43 44 44 45 47 47 48 51 52 48 42 39 38 37 37 37 37 37 37 37 36 35 33 32 32 32 32 33 33 32 32 30 29 30 31 32 34 34 35 36 37 39 40 41 41 42 43 43 42 39 36 34 32 31 30 29 30 31 33 35 38 40 41 41 40 39 39 38 38
37 37 37 33 22 18 21 22 19 15 13 27 43 41 36 39 40 41 44 44 42 43 45 47 48 45 39 35 35 35 34 34 34 34 34 34 33 32 32 32 31 31 31 32 32 31 30 30 29 29 29 30 30 31 32 33 33 34 36 38 39 41 42 42 41 39 36 34 32 31 30 30 31 32 34 36 38 40 41 41 40 39 38 38 38 38
37 35 32 28 21 15 17 17 9 8 21 36 40 37 38 39 38 38 40 40 39 37 36 37 35 32 31 31 32 32 32 32 32 32 32 31 31 32 32 31 30 29 29 29 29 29 29 29 29 29 29 30 30 31 31 31 31 32 34 36 38 39 39 38 37 35 34 32 30 30 31 32 34 36 38 39 40 40 40 39 39 38 38 39 39 38
33 30 25 24 22 16 14 15 10 11 25 35 34 34 37 35 34 36 38 40 39 33 29 27 25 24 27 28 29 30 30 31 31 31 30 28 28 28 26 25 26 26 27 28 28 28 29 29 29 30 30 30 31 31 31 31 32 33 34 35 36 36 36 35 34 33 31 30 30 31 33 35 37 38 39 40 39 39 39 38 38 38 39 39 39 38
28 26 25 24 24 19 16 19 21 21 25 32 35 35 36 35 34 34 34 35 33 28 25 23 21 24 27 27 28 29 29 29 30 28 26 24 24 24 24 24 26 26 27 27 26 27 28 29 30 31 32 33 33 33 33 33 34 35 35 35 35 35 34 33 32 30 30 31 32 34 36 37 38 39 39 38 38 38 38 38 38 39 39 39 38 37
26 26 26 24 23 23 21 16 13 12 18 32 39 37 36 35 31 27 27 30 31 28 25 23 23 24 25 25 26 25 24 26 25 21 19 20 22 23 24 25 25 25 25 26 27 28 30 30 32 33 34 34 34 34 34 34 35 35 35 34 33 32 31 30 29 30 31 33 34 36 37 37 37 37 37 37 37 37 37 38 38 39 39 38 38 38
27 27 29 28 23 24 23 15 8 11 19 30 36 33 32 32 29 24 21 25 31 28 22 21 21 19 18 19 19 18 19 22 20 17 18 22 24 24 25 24 24 25 26 28 29 29 29 30 31 31 32 32 32 33 33 33 33 33 32 31 30 29 28 27 28 30 32 33 34 35 36 36 36 35 35 35 36 36 37 37 38 38 38 38 38 38
28 28 31 32 29 28 28 21 17 22 27 33 34 30 28 28 24 17 10 13 21 22 20 20 20 18 17 17 17 18 19 20 19 18 21 24 24 24 25 25 26 27 28 28 28 27 28 29 29 29 30 30 30 31 32 31 31 30 29 28 27 26 26 26 28 29 30 31 32 33 34 34 34 35 35 35 35 35 36 36 37 37 38 39 39 39
27 29 31 34 34 33 31 25 23 28 33 36 34 31 29 25 18 16 16 18 19 21 22 22 22 22 22 20 19 19 18 17 19 22 23 25 25 26 27 28 28 28 27 26 26 27 27 28 28 28 28 29 30 30 30 30 29 28 27 26 26 25 25 26 28 28 28 29 30 31 32 33 34 34 34 34 35 35 35 36 37 38 39 39 39 39
26 26 26 32 35 34 32 28 24 27 35 36 31 28 30 25 18 18 24 25 22 20 20 18 19 20 20 18 17 16 16 18 22 25 27 28 28 29 29 28 28 27 25 25 26 26 27 27 27 27 28 29 30 30 30 30 29 28 27 27 26 26 26 26 27 27 27 28 28 29 30 31 32 32 33 34 34 35 36 36 37 38 39 40 40 39
27 22 22 29 32 30 29 23 15 19 32 36 30 26 26 24 20 21 22 21 20 18 15 14 15 16 17 17 18 18 21 24 27 29 30 31 30 30 29 28 26 25 24 25 25 25 25 26 26 27 28 29 30 30 30 30 29 29 29 28 28 27 27 27 27 27 27 28 28 29 30 30 31 31 32 33 34 35 36 37 38 39 40 40 40 39
25 25 25 28 29 26 26 24 22 25 30 30 26 23 21 19 20 21 20 19 18 16 14 16 16 17 18 21 22 23 26 28 29 31 31 31 31 29 28 26 25 25 25 25 24 25 25 25 26 26 27 29 30 31 31 30 30 30 30 30 29 29 29 28 28 28 28 28 29 30 30 30 31 32 33 34 35 36 37 38 39 40 40 40 40 40
25 28 30 31 32 31 30 32 33 32 29 25 25 25 23 20 20 21 21 19 16 15 16 17 18 19 21 23 24 26 28 29 30 31 31 30 30 28 27 26 26 25 25 25 26 26 26 26 27 27 29 30 31 31 31 31 31 31 30 30 30 30 30 29 29 28 29 29 30 30 30 31 32 33 35 36 37 38 39 39 40 40 41 41 40 40
27 29 30 31 32 32 32 33 33 31 30 30 30 29 26 23 21 20 18 16 14 14 16 17 19 22 23 24 26 27 28 29 30 31 30 29 28 26 26 26 25 26 26 26 27 27 27 27 28 29 31 32 32 32 33 32 32 32 31 30 31 31 31 30 30 30 30 31 31 31 31 32 33 34 36 37 38 39 40 40 41 41 41 41 40 40
30 29 30 31 30 28 28 30 31 29 29 29 29 27 25 23 19 16 14 13 13 16 19 20 21 22 23 25 27 28 28 30 30 30 29 28 27 27 26 25 26 26 27 27 27 28 28 29 30 31 32 33 33 34 34 33 33 32 31 32 32 32 32 32 32 32 33 32 32 32 33 33 34 35 36 37 38 39 39 40 41 41 41 41 40 39
28 28 30 32 33 31 31 32 32 30 29 28 27 26 24 21 17 14 13 13 16 18 20 20 21 22 24 26 27 29 30 30 30 30 28 28 28 27 26 26 27 27 27 28 29 29 30 31 31 32 33 34 34 35 35 35 34 33 33 33 33 34 34 34 34 35 34 33 33 34 34 34 34 35 35 36 36 37 38 39 39 40 40 40 40 39
27 28 31 33 33 34 35 35 33 31 30 28 27 24 20 16 14 12 13 15 18 19 20 21 23 24 26 27 29 31 31 30 30 29 29 29 29 28 28 28 28 27 28 29 29 30 31 31 32 33 34 34 35 36 36 36 35 34 34 34 35 35 35 36 36 36 34 33 33 34 34 34 34 34 34 35 35 35 36 37 38 39 40 40 40 39
32 34 35 35 36 37 36 32 29 27 26 23 20 18 15 14 14 15 16 18 20 20 21 23 25 27 28 30 31 32 32 31 31 30 31 31 30 30 30 30 29 29 29 29 30 31 31 32 32 33 34 34 35 35 36 35 35 35 35 35 35 36 36 37 37 36 33 33 33 34 34 34 34 34 34 34 34 35 35 36 37 38 39 39 39 39
34 34 33 34 35 34 31 27 24 23 23 22 20 19 18 18 19 20 21 21 22 22 23 24 26 29 30 31 32 33 33 33 32 33 33 33 32 32 33 32 32 32 31 31 32 32 32 32 33 33 33 33 34 34 35 35 35 35 35 35 35 36 36 37 36 34 33 33 34 34 35 35 34 34 34 34 35 35 35 36 37 37 38 38 38 39
Wind_Direction
255 253 254 259 268 275 280 281 278 272 264 260 261 263 266 270 274 277 277 275 276 275 277 281 284 282 280 278 273 270 270 270 270 272 273 274 276 277 272 264 264 272 278 276 265 258 262 272 283 294 297 292 284 280 277 273 272 270 271 271 263 255 252 249 247 247 248 248 249 251 251 251 252 253 252 246 238 228 203 162 134 104 65 35 17 6
258 256 261 269 276 277 275 269 263 259 257 259 261 265 268 269 273 277 276 275 275 276 280 283 282 280 279 278 274 272 271 271 271 272 273 273 274 274 266 260 266 275 277 275 269 265 267 275 284 292 297 296 287 277 268 263 263 265 267 265 260 254 250 250 249 250 252 252 253 255 256 255 253 251 246 241 240 235 231 228 232 246 272 306 321 326
258 260 268 275 273 268 263 258 256 256 257 259 261 264 266 269 273 276 276 276 275 279 282 283 282 279 278 277 275 275 274 274 274 273 272 272 272 268 262 263 270 274 277 279 277 275 275 279 283 289 294 294 285 270 262 260 262 264 264 261 257 254 251 252 253 254 257 259 261 261 260 260 259 256 252 249 249 248 247 249 256 267 279 291 300 306
257 264 272 271 265 261 258 256 254 255 257 259 260 262 265 271 273 273 275 276 277 280 282 284 285 282 279 278 275 274 273 273 273 270 269 269 267 263 261 268 271 270 276 283 284 282 280 280 281 285 290 290 280 267 260 260 262 262 261 259 256 253 252 253 254 257 260 263 265 265 264 263 260 258 257 255 253 253 255 260 267 275 284 291 296 300
260 265 267 263 262 259 257 257 256 256 257 259 261 262 266 271 272 271 272 275 277 279 280 284 289 286 282 280 274 270 269 267 263 260 260 258 256 257 261 266 268 271 279 285 286 283 280 279 279 283 288 286 276 265 260 259 260 260 259 258 256 254 254 254 255 258 261 263 265 265 263 261 258 256 255 252 251 253 257 263 270 277 285 291 296 301
260 262 261 260 261 260 260 260 259 260 260 261 263 264 267 269 269 269 269 270 273 275 276 278 285 286 267 233 249 266 263 259 257 253 250 248 249 253 258 262 266 273 282 286 286 283 279 277 279 283 286 284 274 263 258 257 257 257 256 256 256 255 254 254 255 256 258 259 261 261 259 256 254 250 248 249 251 255 259 263 268 274 281 289 296 302
259 259 259 259 261 261 261 260 260 260 259 260 264 266 265 264 263 264 264 260 259 265 269 264 257 248 244 248 259 265 260 255 255 255 249 247 248 250 253 257 264 273 279 282 281 280 279 278 280 283 284 280 271 262 257 255 254 254 254 253 253 252 252 252 253 253 253 253 254 254 253 252 250 248 249 252 255 258 261 265 271 278 286 293 300 304
259 258 258 259 260 259 259 260 262 259 256 258 263 266 264 262 259 259 260 255 255 262 265 263 260 258 263 267 268 263 260 258 255 254 252 250 249 251 253 258 264 270 273 274 274 274 276 278 279 281 281 275 266 259 254 251 251 251 251 251 251 252 253 253 253 252 250 249 248 248 249 249 250 251 253 254 257 261 265 272 281 289 296 301 305 308
261 260 259 259 257 257 259 263 263 259 256 257 262 264 261 258 256 258 262 260 262 265 261 258 254 252 264 267 269 267 264 263 257 248 246 246 247 250 255 260 264 267 268 268 269 270 272 274 277 280 278 271 262 254 250 249 248 249 249 250 251 253 255 255 254 253 251 250 249 248 248 248 248 250 253 256 263 270 277 286 293 298 302 305 307 308
257 256 257 255 254 256 258 259 257 254 254 254 257 258 255 254 256 261 264 262 264 260 256 257 249 245 264 261 259 266 267 258 238 224 225 234 241 250 258 262 264 264 265 265 266 267 268 271 276 278 274 267 259 252 249 248 247 247 248 249 252 253 254 255 254 255 255 253 251 249 248 248 248 251 257 266 275 283 289 295 299 301 304 305 306 307
252 253 252 251 252 253 251 249 248 248 247 245 247 247 247 251 255 259 258 257 263 257 256 259 249 242 258 267 238 241 241 195 175 180 199 221 240 253 258 260 262 264 265 266 266 266 269 272 275 276 271 263 258 253 250 249 248 247 248 249 251 252 252 253 253 254 255 254 253 251 250 251 254 259 268 278 288 295 299 302 303 305 306 306 306 306
247 246 247 248 249 248 245 243 242 243 240 235 234 231 228 234 245 252 248 239 241 253 255 248 235 228 226 222 190 182 180 164 157 171 205 221 236 244 249 254 257 263 265 266 266 267 269 271 273 273 269 265 260 256 254 252 251 250 250 250 250 251 251 252 253 253 254 254 254 254 255 257 261 268 277 287 297 302 305 306 306 306 307 307 307 306
247 247 246 246 247 245 242 237 233 234 231 224 221 216 208 194 238 243 235 225 234 246 243 223 218 225 233 239 225 181 167 169 175 201 221 227 239 242 249 254 256 260 263 264 265 264 266 269 272 273 271 268 264 260 258 257 256 254 252 251 251 251 252 253 254 254 255 256 257 258 260 263 268 276 285 293 300 304 306 307 307 307 308 307 307 306
246 250 244 240 241 240 235 230 225 224 222 218 216 210 199 164 98 247 247 270 258 249 234 219 222 239 246 250 238 213 195 191 207 237 259 262 256 250 251 252 255 260 261 262 261 263 269 274 276 275 272 270 265 263 262 260 258 256 254 253 253 253 254 255 256 258 260 261 263 265 266 270 276 283 291 297 301 305 307 307 307 307 307 306 306 305
234 245 241 234 235 235 233 231 227 226 224 223 222 216 212 207 203 220 217 214 256 263 214 201 211 230 223 223 208 202 203 211 230 264 280 277 265 257 256 254 257 262 262 264 265 269 275 277 277 277 273 271 268 266 264 261 258 255 254 254 255 256 257 259 261 263 265 267 269 271 274 279 285 290 296 300 302 304 305 306 306 306 305 305 304 304
227 238 239 230 229 231 232 229 225 224 223 222 218 214 219 225 228 238 237 234 270 328 244 211 221 232 221 214 195 190 203 222 249 276 280 275 266 261 262 260 260 262 264 266 268 271 276 278 279 279 276 274 271 268 263 259 256 254 255 256 258 259 261 263 265 267 270 272 274 278 282 287 292 296 299 301 302 303 303 304 304 303 304 304 304 305
223 235 236 228 225 222 222 223 222 222 221 215 211 214 221 226 228 237 258 265 270 292 261 229 232 244 246 251 248 235 233 243 263 278 276 268 264 263 265 264 262 262 262 263 264 271 281 285 285 283 281 277 273 268 262 257 256 256 257 258 260 262 263 266 268 271 274 277 280 284 288 293 296 299 301 302 303 303 303 304 304 304 305 306 307 307
229 234 234 227 224 220 217 216 216 220 221 216 215 221 223 223 226 228 243 313 239 259 263 237 238 245 239 243 252 245 237 251 269 275 269 262 263 267 266 261 257 255 255 259 268 282 288 289 287 284 281 277 272 266 261 258 257 257 258 260 261 263 265 268 270 273 277 281 285 290 293 296 298 301 303 304 305 306 308 309 310 310 310 310 309 309
232 233 231 221 219 218 217 215 212 214 218 220 225 224 215 211 212 207 209 255 194 232 281 249 242 249 239 236 248 244 226 252 275 275 273 268 268 270 258 246 248 250 256 268 277 282 284 283 281 278 275 273 269 264 260 259 258 259 260 261 262 264 266 269 272 275 280 285 290 293 296 298 301 303 305 306 307 309 310 310 310 310 310 309 309 308
228 229 230 222 219 216 214 214 212 211 212 215 221 221 215 214 207 201 209 217 186 203 267 267 257 254 244 235 227 225 244 281 290 287 292 292 284 271 251 245 254 260 266 273 276 277 277 276 274 272 269 267 264 261 260 259 259 259 260 261 262 265 267 271 276 281 286 291 295 298 299 301 304 305 305 306 307 307 308 307 307 307 306 306 306 306
226 225 227 222 216 214 215 218 221 222 220 217 217 216 215 214 211 215 227 225 216 207 203 264 277 244 176 160 168 239 295 298 298 297 299 297 289 274 262 260 265 269 271 272 274 275 273 271 270 268 266 265 263 262 260 259 259 259 259 260 263 267 271 276 283 288 294 298 301 301 300 302 303 303 304 305 306 306 306 305 305 304 304 303 303 303
221 221 223 220 216 218 224 229 231 231 232 233 234 231 227 225 219 215 232 227 221 225 217 204 276 262 202 154 238 293 298 295 298 298 296 292 285 277 271 269 270 272 273 272 271 271 268 267 268 267 266 265 264 262 260 258 258 257 258 261 265 270 276 283 289 294 298 300 299 297 297 299 301 302 303 303 303 303 302 302 301 300 301 301 301 301
220 220 222 224 227 230 232 233 231 228 230 233 237 240 240 237 226 215 220 227 217 225 232 222 270 265 252 251 275 286 289 292 296 295 292 290 288 285 276 270 268 267 267 266 265 266 266 267 268 267 266 266 265 262 259 256 256 257 260 264 269 275 282 289 294 297 297 296 293 293 296 299 301 302 302 302 300 299 298 298 297 298 298 299 300 300
215 217 220 223 232 234 231 232 231 227 226 226 230 233 231 232 231 228 234 239 226 223 223 203 253 258 260 271 277 281 285 288 291 289 290 294 294 290 276 262 256 254 257 261 264 266 267 268 269 269 268 267 263 258 254 254 255 259 263 269 276 282 287 292 295 294 292 291 292 295 298 300 301 301 300 299 298 297 296 295 296 297 298 299 299 299
211 214 213 209 221 231 229 231 229 223 222 225 229 230 228 231 233 232 234 237 241 239 223 204 241 256 263 273 275 280 284 283 286 288 291 294 292 282 262 250 250 256 264 267 268 268 268 269 270 270 267 262 257 254 253 256 260 265 271 276 281 284 287 291 292 290 289 291 294 296 298 298 299 298 297 296 295 295 294 293 294 296 297 298 298 298
216 217 213 205 198 206 212 219 224 223 221 224 228 229 229 231 230 231 232 228 232 239 227 226 243 255 263 268 271 276 279 280 285 289 290 291 285 273 264 263 266 273 276 276 273 271 270 270 269 265 261 257 255 256 259 262 267 272 276 279 281 283 286 290 293 292 292 293 293 294 295 295 295 294 294 293 291 291 290 291 292 294 296 296 297 296
218 222 222 221 222 225 229 231 235 234 227 227 232 233 233 233 233 233 231 226 227 226 232 243 248 252 261 266 268 272 277 281 285 287 287 286 283 278 275 274 277 282 284 281 277 273 271 269 264 257 254 253 255 259 263 266 270 273 274 275 278 281 286 291 294 293 290 290 290 290 291 291 291 291 290 289 288 287 288 289 291 293 294 295 295 296
217 222 225 230 234 238 242 245 247 245 238 236 239 239 239 238 238 235 231 235 237 228 238 252 252 253 262 265 266 270 275 279 281 282 284 284 282 280 278 279 284 288 287 282 277 274 271 264 256 251 252 256 259 261 263 267 269 269 270 272 276 281 286 289 290 289 287 286 287 287 288 289 289 288 287 286 285 286 287 289 290 292 293 294 295 296
219 224 228 232 237 241 243 245 247 244 241 240 238 238 242 242 241 240 240 245 244 238 247 258 257 259 266 266 265 268 272 274 278 281 282 282 280 278 279 284 288 288 283 276 273 270 267 261 258 260 261 261 262 262 264 266 267 266 267 270 275 280 283 285 285 285 284 284 285 286 287 287 287 286 284 283 283 284 286 288 289 291 292 294 295 296
221 227 231 233 238 242 242 243 246 246 246 248 247 247 250 251 251 250 250 252 250 248 254 259 259 261 265 265 264 267 271 275 279 281 280 279 278 278 282 285 285 281 274 270 268 267 266 266 267 267 264 261 260 260 262 263 264 264 266 269 273 276 279 280 281 282 282 282 284 285 286 286 285 283 281 281 281 282 284 286 288 291 293 295 296 295
222 229 235 239 242 246 247 246 246 249 250 253 256 255 253 253 251 248 248 249 248 250 254 256 255 258 262 262 264 269 273 276 278 278 276 276 277 280 282 281 278 274 271 271 270 268 268 268 268 266 263 259 257 258 259 260 260 262 264 267 270 272 274 276 278 279 280 281 283 284 284 284 282 280 279 279 280 281 283 286 289 292 294 295 295 294
226 231 236 240 241 244 248 247 245 247 250 254 255 253 248 248 250 250 249 250 251 254 255 252 252 258 263 266 269 274 277 277 275 274 273 274 276 277 277 276 275 273 272 272 271 271 271 270 268 266 264 260 258 259 260 261 261 261 262 264 266 268 270 273 276 278 279 281 282 282 283 282 280 279 279 279 280 282 285 288 291 293 294 294 294 292
231 233 235 235 232 237 242 241 239 242 247 251 251 250 249 252 256 258 257 259 260 260 256 253 257 264 269 271 274 276 276 275 274 274 272 272 272 272 273 273 273 272 273 272 272 272 271 270 268 266 265 262 261 262 263 263 263 262 261 262 264 266 269 272 275 277 278 280 281 281 281 280 280 279 278 279 281 284 287 289 291 292 293 293 292 292
232 232 231 230 225 227 234 234 234 231 234 246 250 253 258 260 262 264 264 267 269 265 261 262 266 268 270 272 275 275 275 275 274 272 270 269 270 271 272 272 273 273 273 271 270 270 269 268 268 267 266 266 266 267 267 267 266 263 262 262 264 266 269 271 274 276 279 280 280 280 280 280 280 279 280 282 284 286 288 289 290 291 291 292 292 292
227 223 223 225 225 231 235 231 221 221 242 253 261 265 265 265 267 268 268 271 270 264 261 262 264 266 270 273 273 273 273 274 272 270 269 270 272 272 272 272 272 271 268 267 267 267 268 269 270 270 271 271 272 273 273 271 269 266 265 264 265 267 269 272 275 278 280 280 280 279 279 279 280 282 283 285 286 286 287 288 289 290 290 291 291 291
219 217 220 225 227 228 219 210 212 245 254 258 262 264 264 267 268 266 265 268 268 262 256 257 261 270 275 274 272 272 274 273 272 271 272 273 273 271 270 269 266 264 264 266 267 269 271 273 275 275 277 277 277 276 275 273 271 270 269 269 270 272 274 277 279 281 281 280 279 278 279 280 282 283 284 285 285 285 286 287 288 288 289 289 290 291
221 223 226 224 221 220 211 213 231 252 260 258 258 262 267 271 271 268 265 266 265 259 257 262 271 276 277 275 273 274 274 272 271 273 274 272 269 267 265 264 263 264 266 268 271 274 276 277 277 278 278 277 276 275 274 274 273 273 273 274 275 277 279 280 281 281 280 279 279 280 281 282 282 283 283 283 283 284 285 285 286 286 287 288 289 290
230 230 231 227 223 226 225 225 236 249 257 260 263 269 273 271 266 260 258 259 257 256 264 275 280 279 277 274 272 272 269 267 271 276 273 266 265 265 265 265 265 268 271 274 276 277 277 278 278 278 277 276 276 275 274 274 274 275 276 277 279 280 281 282 283 282 281 280 280 280 280 280 280 280 280 280 281 282 282 283 284 285 286 287 289 290
232 233 236 234 228 225 222 222 229 235 251 264 269 272 271 265 256 250 254 260 259 262 276 286 283 279 273 267 265 262 261 267 275 277 268 265 267 267 267 269 270 274 277 279 280 280 280 280 280 278 277 276 275 274 274 274 275 277 279 281 281 281 282 283 282 281 280 279 279 278 278 277 277 277 277 278 278 279 280 281 283 284 286 288 289 291
229 231 232 231 230 228 226 229 238 244 254 263 265 264 263 258 249 239 243 259 261 270 288 291 285 280 272 266 265 266 270 276 278 272 267 269 271 270 271 275 278 281 282 282 282 283 283 283 281 279 276 274 272 272 273 275 277 280 281 281 279 280 281 281 280 279 279 278 278 277 277 277 276 276 276 277 277 278 280 281 283 285 287 289 290 291
226 228 228 229 232 233 230 233 241 249 255 259 257 254 254 249 235 227 242 261 274 285 289 284 280 278 274 274 276 276 277 275 271 270 272 274 275 277 280 284 285 286 286 286 287 287 285 282 280 277 274 272 271 272 274 277 280 281 281 280 280 282 282 281 280 280 279 277 277 277 277 277 278 278 277 277 277 279 281 283 285 286 288 289 290 291
225 225 223 226 231 233 232 237 244 250 254 254 251 246 244 239 232 245 262 274 285 288 284 278 275 275 276 279 280 279 276 272 273 277 279 279 282 285 288 289 289 290 291 290 289 287 284 282 279 276 274 272 272 274 276 278 281 282 283 284 285 285 284 282 281 279 277 277 277 278 279 279 280 280 279 279 279 280 282 283 285 286 288 289 290 291
236 229 221 226 232 231 229 233 242 248 251 250 245 240 241 245 257 274 282 285 286 283 281 277 273 272 273 275 277 279 279 278 279 282 283 286 289 291 291 292 292 292 291 289 287 286 284 283 281 278 275 273 274 276 277 280 283 284 286 287 287 285 284 282 280 278 278 280 281 281 282 283 284 284 283 282 282 282 283 284 286 287 289 291 292 292
236 232 229 235 238 230 222 227 238 247 250 249 247 251 258 265 273 281 283 281 280 278 275 273 272 270 270 273 276 278 278 279 281 283 286 289 290 291 292 293 292 292 291 290 290 289 287 286 285 281 278 277 277 278 279 282 284 286 287 288 286 284 283 282 280 279 282 285 286 287 288 288 289 288 287 286 285 285 285 287 288 290 292 293 293 292
237 241 246 248 247 243 241 244 249 250 250 250 259 271 277 276 276 280 281 280 279 275 272 272 271 269 270 274 276 277 277 279 282 284 285 286 287 289 290 290 290 291 292 293 293 292 292 291 288 284 282 282 281 281 283 284 286 288 288 287 284 283 283 284 284 284 286 289 290 290 291 291 291 290 289 288 287 287 288 289 290 292 293 293 293 291
248 249 253 254 251 250 252 252 252 253 255 261 270 277 278 278 281 283 282 281 278 271 268 268 267 269 273 275 276 277 278 280 281 281 281 281 283 285 285 285 288 291 293 294 294 294 293 291 288 286 286 286 285 285 286 287 288 289 289 286 284 284 285 287 288 289 291 293 292 292 292 292 292 291 290 289 289 288 289 290 291 292 293 293 293 291
249 247 247 246 245 246 248 250 254 259 264 269 272 273 275 281 286 285 281 279 272 267 267 267 268 272 275 276 276 277 278 278 277 276 277 280 281 281 282 284 288 291 293 293 293 292 290 288 288 288 288 287 287 287 288 289 290 290 289 286 285 286 287 289 291 292 293 294 293 292 292 292 292 291 291 290 289 289 290 291 292 293 294 294 293 291
243 244 242 241 242 246 252 257 262 266 268 269 271 275 281 287 287 282 276 269 263 264 267 269 272 275 276 276 275 274 273 272 272 274 277 278 277 278 281 284 288 290 291 291 291 290 289 288 288 287 287 287 288 287 287 288 289 289 287 284 283 284 286 288 291 293 294 293 292 291 291 292 292 292 291 291 291 292 292 293 294 296 296 295 294 292
241 242 243 245 249 253 256 260 264 267 270 273 277 282 286 285 280 273 264 260 262 267 271 273 274 274 273 271 269 267 268 270 272 275 275 274 274 278 281 284 286 288 289 290 289 288 287 287 287 286 286 286 286 285 286 287 287 286 284 281 280 282 284 286 290 292 292 290 289 289 290 291 291 292 293 293 294 295 295 296 297 298 298 296 294 293
243 246 248 251 255 257 260 265 269 272 275 279 283 284 282 278 275 269 265 266 270 273 273 271 268 266 265 264 264 265 267 269 271 272 271 271 274 279 281 283 285 286 287 288 286 284 283 284 284 284 284 284 284 284 285 285 284 283 281 279 279 280 282 285 288 289 288 287 287 288 288 289 291 292 292 293 294 295 297 298 298 299 298 296 294 293
247 251 255 257 261 264 267 271 274 275 277 279 280 280 279 279 277 275 274 275 274 271 267 264 261 260 261 262 262 264 266 268 269 270 270 271 275 279 282 284 285 285 285 285 283 281 281 281 282 282 282 282 282 282 282 281 280 280 279 278 279 280 282 284 286 286 285 284 285 286 287 288 289 290 291 292 292 294 296 297 298 298 297 295 294 292
Height
3158 3158 3157 3157 3157 3159 3160 3160 3161 3160 3160 3160 3160 3160 3160 3160 3159 3160 3160 3160 3159 3158 3157 3158 3157 3156 3157 3158 3158 3157 3157 3157 3157 3157 3157 3157 3157 3158 3159 3160 3160 3160 3160 3160 3159 3159 3159 3159 3159 3159 3159 3159 3158 3158 3158 3158 3158 3158 3157 3157 3156 3156 3156 3156 3157 3157 3157 3157 3157 3156 3156 3156 3155 3155 3154 3154 3154 3154 3154 3154 3154 3154 3155 3155 3155 3155
3155 3153 3153 3155 3157 3157 3158 3158 3157 3157 3157 3157 3157 3157 3157 3156 3156 3157 3158 3157 3157 3155 3154 3155 3153 3153 3154 3155 3154 3153 3154 3154 3154 3154 3154 3154 3155 3156 3157 3157 3158 3158 3158 3158 3157 3158 3158 3158 3158 3157 3157 3157 3157 3157 3157 3157 3157 3157 3156 3156 3155 3155 3155 3155 3155 3155 3155 3155 3155 3155 3155 3155 3154 3154 3154 3153 3153 3153 3152 3152 3153 3153 3153 3153 3153 3154
3150 3148 3151 3155 3155 3155 3155 3155 3155 3154 3154 3154 3154 3154 3153 3153 3153 3154 3155 3154 3154 3152 3151 3151 3149 3149 3151 3151 3150 3150 3150 3151 3151 3151 3151 3152 3152 3153 3154 3155 3156 3156 3155 3156 3156 3156 3156 3156 3156 3156 3156 3155 3155 3155 3155 3156 3156 3156 3155 3155 3154 3153 3153 3153 3153 3153 3153 3153 3153 3153 3153 3153 3153 3153 3152 3152 3152 3151 3151 3151 3151 3151 3151 3151 3151 3151
3146 3147 3150 3152 3151 3152 3152 3152 3152 3151 3151 3151 3151 3150 3149 3150 3151 3152 3152 3151 3151 3150 3148 3148 3147 3145 3146 3146 3146 3146 3147 3147 3148 3148 3148 3149 3150 3151 3152 3153 3153 3153 3153 3154 3154 3155 3155 3155 3154 3154 3154 3154 3154 3154 3154 3154 3155 3155 3154 3154 3153 3152 3151 3151 3151 3151 3151 3151 3151 3151 3151 3151 3151 3151 3151 3151 3150 3150 3150 3149 3149 3149 3149 3149 3149 3149
3143 3145 3148 3148 3148 3149 3149 3148 3149 3148 3148 3147 3147 3147 3146 3148 3149 3149 3149 3149 3148 3147 3146 3146 3144 3141 3141 3142 3142 3143 3143 3144 3144 3145 3146 3147 3148 3149 3149 3150 3150 3150 3151 3151 3152 3152 3152 3152 3152 3152 3153 3153 3153 3153 3153 3153 3153 3153 3153 3152 3152 3151 3150 3150 3149 3149 3149 3150 3149 3149 3149 3149 3149 3149 3149 3149 3149 3148 3148 3148 3148 3148 3147 3148 3148 3148
3140 3143 3144 3144 3145 3145 3146 3145 3146 3146 3145 3144 3144 3144 3145 3146 3146 3146 3147 3146 3145 3143 3142 3144 3143 3139 3137 3139 3139 3140 3141 3141 3141 3142 3143 3144 3145 3146 3147 3147 3147 3147 3148 3148 3149 3149 3149 3149 3149 3150 3150 3151 3151 3151 3151 3151 3152 3152 3152 3151 3151 3150 3149 3148 3148 3148 3148 3148 3148 3147 3147 3147 3147 3147 3147 3147 3147 3146 3146 3146 3146 3146 3146 3146 3146 3146
3136 3139 3139 3141 3142 3142 3142 3141 3142 3143 3142 3141 3141 3142 3143 3143 3144 3144 3144 3144 3142 3140 3140 3141 3140 3137 3135 3136 3137 3138 3138 3138 3139 3140 3141 3143 3144 3144 3145 3145 3145 3146 3146 3146 3146 3145 3145 3146 3146 3147 3148 3148 3149 3149 3149 3149 3150 3150 3150 3150 3149 3148 3148 3147 3147 3146 3146 3146 3146 3145 3145 3145 3145 3145 3145 3144 3144 3144 3144 3144 3144 3144 3144 3144 3144 3144
3132 3135 3136 3137 3138 3138 3137 3137 3139 3140 3140 3139 3138 3140 3141 3141 3142 3142 3142 3141 3140 3139 3138 3137 3137 3135 3132 3132 3134 3135 3135 3136 3137 3138 3139 3140 3141 3142 3142 3143 3143 3144 3144 3144 3143 3143 3143 3143 3144 3144 3145 3145 3146 3146 3147 3147 3148 3148 3148 3148 3148 3147 3146 3146 3145 3145 3144 3144 3144 3143 3143 3143 3142 3142 3142 3142 3142 3142 3141 3141 3141 3141 3141 3141 3141 3141
3130 3132 3133 3134 3134 3134 3134 3135 3136 3137 3137 3137 3137 3138 3139 3140 3140 3140 3140 3140 3139 3138 3135 3134 3135 3134 3129 3128 3131 3131 3131 3133 3134 3135 3137 3138 3139 3139 3140 3140 3141 3141 3141 3141 3140 3140 3141 3141 3141 3142 3142 3143 3143 3144 3144 3145 3145 3146 3146 3146 3146 3146 3145 3145 3144 3143 3143 3142 3142 3141 3141 3140 3140 3140 3140 3140 3140 3139 3139 3139 3138 3138 3138 3138 3138 3138
3127 3128 3130 3131 3130 3130 3132 3133 3133 3134 3134 3135 3136 3137 3137 3138 3138 3138 3139 3138 3138 3135 3131 3131 3133 3132 3126 3124 3127 3128 3128 3129 3130 3132 3134 3135 3136 3137 3138 3138 3138 3138 3138 3137 3138 3138 3138 3139 3139 3139 3140 3140 3141 3142 3142 3143 3143 3144 3144 3145 3145 3144 3144 3143 3142 3142 3141 3140 3140 3139 3139 3138 3138 3137 3137 3137 3137 3137 3137 3136 3135 3135 3135 3135 3135 3135
3124 3125 3126 3127 3127 3128 3129 3130 3130 3131 3132 3133 3134 3135 3136 3136 3136 3137 3136 3136 3137 3131 3127 3128 3130 3130 3126 3122 3123 3125 3125 3127 3128 3130 3132 3133 3135 3135 3135 3136 3135 3135 3135 3135 3135 3135 3136 3136 3136 3136 3137 3138 3139 3140 3140 3140 3141 3142 3142 3143 3142 3142 3141 3141 3141 3140 3139 3139 3138 3137 3137 3136 3135 3135 3135 3135 3134 3134 3134 3133 3132 3131 3131 3131 3132 3131
3119 3120 3121 3123 3124 3125 3126 3127 3128 3128 3129 3130 3132 3133 3134 3135 3135 3135 3135 3135 3134 3128 3124 3125 3126 3127 3125 3120 3120 3122 3123 3125 3127 3129 3130 3132 3133 3133 3133 3133 3132 3133 3132 3132 3132 3132 3133 3133 3133 3133 3134 3135 3136 3137 3138 3138 3139 3140 3140 3140 3140 3140 3139 3139 3139 3138 3137 3137 3136 3136 3135 3134 3133 3132 3132 3132 3131 3131 3130 3129 3128 3128 3127 3127 3127 3127
3115 3116 3118 3119 3120 3121 3123 3124 3125 3125 3126 3127 3129 3131 3133 3134 3135 3134 3133 3133 3129 3124 3122 3123 3124 3123 3118 3116 3119 3121 3122 3123 3125 3127 3128 3129 3130 3130 3130 3130 3130 3131 3130 3130 3130 3130 3130 3130 3130 3131 3131 3132 3133 3134 3135 3136 3137 3137 3138 3137 3137 3137 3137 3136 3136 3136 3135 3135 3134 3133 3132 3132 3131 3130 3129 3129 3128 3128 3127 3126 3125 3124 3124 3123 3123 3123
3112 3113 3114 3115 3116 3117 3118 3119 3120 3121 3122 3124 3125 3127 3129 3132 3134 3132 3131 3129 3125 3121 3120 3122 3123 3118 3112 3113 3116 3118 3120 3122 3122 3124 3125 3126 3126 3126 3127 3127 3128 3128 3128 3128 3128 3128 3127 3127 3127 3128 3129 3129 3130 3131 3132 3133 3134 3134 3134 3134 3134 3134 3134 3134 3133 3133 3132 3132 3131 3131 3130 3129 3128 3127 3127 3126 3125 3125 3124 3123 3122 3120 3119 3119 3119 3118
3110 3109 3109 3110 3111 3112 3113 3115 3117 3118 3120 3121 3122 3124 3125 3126 3127 3126 3124 3123 3120 3119 3119 3121 3120 3112 3108 3109 3111 3114 3118 3119 3120 3121 3122 3122 3123 3123 3124 3125 3125 3125 3125 3125 3125 3125 3125 3125 3125 3126 3126 3127 3127 3128 3129 3130 3131 3131 3131 3131 3131 3131 3131 3130 3130 3130 3129 3129 3128 3127 3127 3126 3125 3124 3124 3123 3122 3121 3120 3119 3118 3116 3115 3114 3114 3113
3106 3105 3105 3107 3107 3109 3110 3112 3114 3116 3117 3118 3119 3121 3121 3121 3122 3121 3120 3119 3119 3119 3117 3116 3112 3107 3106 3108 3108 3112 3115 3116 3118 3118 3119 3119 3119 3120 3121 3122 3123 3123 3123 3123 3122 3122 3122 3122 3123 3123 3123 3124 3124 3125 3126 3126 3127 3127 3127 3128 3128 3128 3127 3127 3127 3126 3126 3125 3124 3124 3123 3123 3122 3121 3120 3119 3118 3117 3115 3114 3113 3111 3110 3109 3108 3107
3103 3102 3103 3104 3104 3106 3107 3108 3111 3112 3113 3114 3115 3115 3116 3118 3119 3119 3119 3118 3120 3119 3111 3107 3106 3104 3106 3106 3106 3110 3112 3113 3115 3115 3116 3117 3116 3117 3118 3119 3120 3120 3119 3120 3120 3120 3120 3120 3120 3120 3120 3121 3121 3122 3122 3123 3123 3124 3124 3124 3124 3124 3124 3123 3123 3122 3122 3121 3120 3120 3119 3118 3117 3116 3115 3114 3113 3111 3110 3108 3107 3106 3104 3103 3102 3100
3100 3099 3100 3101 3102 3103 3104 3105 3107 3108 3109 3110 3111 3112 3114 3117 3117 3118 3118 3118 3120 3118 3107 3101 3101 3101 3102 3102 3102 3106 3108 3110 3111 3112 3113 3114 3114 3115 3115 3116 3117 3116 3116 3117 3117 3117 3117 3117 3117 3117 3117 3118 3118 3118 3119 3119 3120 3120 3120 3120 3120 3120 3120 3119 3119 3118 3117 3117 3116 3115 3115 3114 3113 3111 3109 3108 3107 3105 3103 3101 3100 3098 3097 3096 3095 3094
3097 3097 3098 3099 3100 3101 3102 3102 3103 3104 3106 3107 3107 3109 3111 3112 3113 3114 3116 3115 3116 3115 3106 3099 3097 3097 3097 3098 3099 3102 3105 3106 3108 3109 3111 3111 3112 3113 3113 3114 3114 3113 3114 3114 3114 3114 3114 3114 3114 3114 3114 3115 3115 3115 3115 3116 3116 3117 3117 3116 3116 3116 3115 3115 3114 3114 3113 3112 3112 3111 3110 3109 3107 3105 3104 3102 3101 3099 3097 3095 3094 3093 3092 3091 3091 3090
3093 3095 3095 3096 3097 3098 3098 3097 3098 3099 3101 3102 3104 3106 3107 3108 3108 3109 3110 3109 3109 3110 3106 3098 3094 3092 3091 3093 3096 3099 3101 3103 3104 3106 3107 3108 3109 3110 3111 3111 3111 3111 3111 3111 3111 3110 3110 3111 3111 3111 3111 3111 3112 3112 3112 3112 3112 3113 3112 3112 3112 3111 3111 3111 3110 3109 3109 3108 3107 3106 3105 3103 3101 3100 3099 3097 3096 3094 3093 3092 3091 3090 3089 3088 3087 3086
3090 3091 3091 3092 3093 3093 3091 3091 3092 3093 3095 3096 3098 3100 3101 3103 3105 3105 3105 3104 3105 3106 3104 3100 3093 3088 3088 3091 3093 3096 3098 3099 3101 3102 3104 3105 3106 3107 3108 3108 3108 3108 3108 3107 3107 3107 3107 3107 3107 3108 3108 3108 3108 3108 3108 3109 3109 3108 3108 3107 3107 3107 3107 3106 3106 3105 3104 3103 3102 3101 3100 3098 3097 3096 3095 3093 3092 3090 3089 3088 3087 3086 3085 3084 3083 3082
3085 3086 3087 3087 3087 3086 3086 3088 3090 3091 3091 3092 3093 3093 3095 3098 3100 3102 3101 3099 3100 3101 3100 3099 3093 3085 3086 3089 3090 3093 3095 3096 3098 3099 3100 3101 3103 3104 3104 3104 3104 3104 3103 3103 3103 3103 3104 3104 3104 3104 3104 3105 3105 3105 3105 3104 3104 3104 3103 3103 3103 3103 3102 3102 3101 3100 3099 3098 3098 3097 3096 3095 3093 3092 3090 3089 3088 3087 3086 3085 3083 3082 3081 3081 3080 3079
3080 3082 3083 3083 3082 3083 3085 3086 3087 3088 3088 3089 3089 3090 3092 3093 3093 3095 3094 3093 3096 3096 3095 3098 3092 3082 3082 3086 3088 3090 3092 3093 3094 3095 3096 3098 3099 3100 3100 3101 3100 3099 3099 3099 3100 3100 3100 3100 3101 3101 3101 3101 3101 3101 3100 3100 3100 3099 3099 3099 3099 3098 3098 3097 3096 3095 3095 3094 3093 3093 3092 3090 3089 3088 3086 3085 3084 3083 3082 3081 3080 3079 3078 3077 3076 3075
3076 3077 3078 3079 3080 3082 3083 3082 3083 3084 3084 3084 3085 3085 3087 3087 3088 3090 3090 3090 3092 3090 3091 3096 3090 3078 3080 3084 3085 3087 3089 3090 3091 3092 3093 3095 3095 3096 3096 3096 3096 3096 3096 3097 3096 3097 3097 3097 3097 3097 3097 3097 3096 3096 3096 3096 3096 3096 3095 3095 3095 3094 3093 3092 3092 3091 3090 3090 3089 3088 3087 3086 3085 3084 3082 3081 3080 3079 3078 3076 3075 3074 3073 3073 3071 3070
3070 3071 3073 3077 3079 3080 3080 3079 3078 3078 3079 3079 3078 3079 3081 3083 3086 3088 3087 3089 3088 3084 3087 3090 3081 3076 3080 3082 3081 3084 3086 3086 3088 3089 3090 3091 3091 3092 3092 3092 3093 3093 3093 3093 3093 3093 3093 3093 3093 3093 3092 3092 3092 3092 3092 3092 3093 3092 3092 3091 3090 3090 3089 3088 3087 3087 3086 3085 3084 3083 3082 3081 3081 3080 3078 3077 3075 3074 3073 3072 3071 3070 3069 3068 3067 3066
3065 3064 3065 3066 3068 3069 3069 3068 3067 3069 3072 3073 3073 3075 3078 3080 3081 3082 3083 3084 3082 3080 3082 3081 3075 3076 3080 3078 3078 3082 3082 3083 3085 3086 3086 3087 3087 3088 3088 3088 3088 3088 3089 3089 3089 3089 3089 3089 3088 3088 3088 3088 3088 3089 3089 3089 3089 3089 3088 3087 3086 3084 3083 3083 3083 3082 3081 3081 3080 3079 3078 3078 3077 3075 3074 3072 3071 3070 3069 3068 3067 3066 3065 3064 3063 3062
3060 3059 3058 3056 3056 3057 3058 3060 3062 3065 3067 3068 3068 3071 3073 3075 3076 3077 3077 3076 3075 3078 3077 3073 3072 3076 3077 3075 3076 3078 3079 3080 3081 3082 3082 3083 3083 3083 3083 3083 3083 3083 3084 3084 3084 3084 3084 3084 3084 3083 3084 3084 3085 3085 3086 3085 3085 3084 3083 3082 3080 3079 3078 3079 3078 3077 3077 3076 3075 3075 3074 3073 3072 3070 3069 3068 3066 3065 3064 3063 3062 3061 3060 3059 3058 3057
3054 3053 3053 3053 3053 3055 3057 3059 3061 3062 3063 3064 3066 3067 3069 3070 3071 3071 3069 3069 3073 3075 3070 3067 3072 3073 3072 3072 3073 3075 3077 3077 3077 3078 3078 3078 3078 3078 3077 3077 3077 3077 3078 3078 3079 3079 3079 3079 3079 3080 3080 3081 3081 3081 3081 3081 3080 3079 3078 3077 3076 3075 3074 3074 3074 3073 3072 3072 3071 3071 3070 3068 3067 3066 3064 3063 3062 3061 3060 3059 3058 3057 3056 3055 3054 3052
3049 3048 3049 3051 3052 3052 3055 3056 3057 3059 3060 3061 3063 3063 3065 3066 3065 3064 3065 3067 3070 3068 3064 3066 3070 3068 3066 3068 3070 3072 3073 3073 3073 3074 3074 3073 3073 3072 3072 3072 3072 3073 3073 3074 3074 3074 3075 3075 3075 3076 3076 3076 3076 3077 3076 3076 3075 3075 3074 3073 3072 3071 3070 3070 3069 3068 3068 3067 3067 3066 3065 3063 3062 3061 3060 3059 3057 3056 3055 3054 3053 3052 3051 3050 3049 3048
3045 3044 3046 3047 3048 3049 3051 3052 3054 3056 3056 3056 3057 3058 3059 3060 3059 3060 3063 3064 3065 3063 3063 3066 3066 3062 3062 3064 3066 3068 3069 3068 3069 3070 3069 3069 3068 3067 3067 3067 3068 3069 3069 3070 3070 3070 3070 3071 3071 3071 3071 3071 3071 3071 3071 3071 3070 3070 3069 3068 3067 3067 3066 3065 3064 3063 3063 3062 3062 3061 3059 3059 3058 3057 3056 3054 3053 3052 3051 3050 3049 3048 3047 3046 3044 3043
3040 3040 3042 3043 3044 3045 3045 3047 3050 3051 3052 3052 3051 3051 3053 3054 3055 3056 3058 3060 3061 3060 3061 3063 3060 3056 3058 3061 3062 3063 3064 3064 3065 3065 3064 3064 3063 3062 3062 3063 3063 3064 3064 3065 3065 3065 3065 3066 3065 3065 3066 3066 3066 3066 3066 3065 3065 3065 3065 3064 3063 3062 3061 3060 3059 3058 3058 3058 3057 3055 3054 3054 3053 3052 3051 3050 3049 3048 3046 3045 3044 3043 3042 3040 3039 3038
3036 3036 3037 3040 3041 3040 3040 3043 3045 3046 3048 3047 3042 3041 3046 3048 3048 3049 3052 3055 3056 3056 3057 3057 3052 3050 3053 3058 3059 3059 3059 3059 3060 3060 3059 3059 3058 3058 3058 3058 3059 3059 3059 3059 3060 3060 3060 3060 3060 3060 3060 3061 3061 3061 3061 3061 3060 3060 3060 3059 3059 3057 3056 3055 3054 3054 3053 3053 3052 3050 3050 3049 3048 3048 3047 3046 3045 3043 3042 3040 3039 3038 3037 3036 3035 3034
3031 3032 3034 3036 3037 3036 3037 3039 3041 3045 3046 3037 3028 3032 3040 3042 3042 3044 3046 3048 3049 3050 3050 3047 3044 3046 3051 3054 3055 3054 3054 3054 3055 3055 3054 3053 3053 3053 3053 3054 3054 3054 3055 3055 3054 3055 3055 3055 3055 3055 3055 3056 3056 3056 3056 3056 3055 3055 3055 3054 3053 3052 3051 3050 3049 3049 3048 3047 3046 3046 3045 3044 3044 3043 3042 3041 3040 3038 3037 3035 3034 3033 3032 3031 3030 3029
3027 3028 3030 3032 3033 3033 3033 3035 3039 3041 3034 3023 3021 3030 3035 3036 3038 3039 3038 3040 3042 3043 3042 3040 3041 3045 3048 3049 3049 3050 3049 3049 3049 3049 3048 3048 3049 3049 3048 3049 3049 3050 3050 3050 3049 3050 3050 3050 3051 3051 3051 3051 3051 3051 3051 3050 3050 3050 3050 3049 3048 3047 3046 3045 3044 3044 3043 3042 3041 3041 3040 3039 3039 3038 3037 3036 3035 3033 3032 3030 3029 3028 3027 3027 3025 3024
3022 3024 3026 3028 3029 3029 3030 3033 3035 3030 3021 3018 3023 3028 3029 3031 3034 3033 3032 3033 3034 3034 3035 3036 3038 3042 3043 3044 3045 3044 3044 3044 3043 3043 3043 3043 3044 3043 3043 3044 3045 3045 3045 3045 3045 3045 3045 3046 3046 3046 3046 3046 3046 3046 3045 3045 3045 3044 3044 3043 3043 3042 3041 3040 3039 3038 3038 3037 3036 3036 3035 3034 3034 3033 3032 3031 3029 3028 3027 3026 3025 3024 3023 3022 3021 3019
3017 3020 3022 3023 3025 3026 3027 3028 3026 3019 3016 3019 3020 3021 3023 3026 3028 3027 3026 3026 3027 3029 3030 3032 3035 3037 3039 3039 3039 3039 3039 3039 3038 3038 3038 3039 3039 3038 3039 3040 3040 3040 3040 3040 3041 3041 3041 3041 3041 3041 3041 3041 3040 3040 3040 3039 3039 3038 3038 3038 3037 3036 3035 3035 3034 3033 3032 3032 3031 3031 3030 3029 3028 3027 3026 3025 3024 3023 3022 3021 3020 3019 3018 3017 3016 3014
3014 3015 3017 3019 3019 3020 3021 3020 3018 3016 3015 3014 3014 3016 3019 3021 3022 3023 3021 3021 3024 3025 3025 3028 3031 3033 3033 3033 3033 3034 3034 3033 3033 3034 3034 3034 3034 3034 3034 3035 3034 3035 3035 3036 3036 3037 3037 3037 3037 3036 3036 3035 3035 3035 3034 3034 3033 3033 3032 3032 3031 3031 3030 3029 3029 3028 3028 3027 3027 3026 3025 3024 3023 3022 3021 3020 3019 3018 3017 3016 3015 3014 3013 3012 3011 3010
3010 3011 3013 3014 3014 3015 3016 3016 3016 3015 3010 3007 3009 3014 3015 3015 3017 3018 3017 3016 3020 3021 3021 3024 3025 3026 3027 3028 3027 3028 3029 3028 3028 3030 3029 3029 3029 3029 3030 3030 3030 3031 3032 3032 3032 3032 3032 3032 3032 3032 3031 3030 3030 3029 3029 3028 3027 3027 3027 3026 3026 3026 3025 3024 3024 3024 3023 3023 3022 3021 3020 3019 3019 3018 3017 3016 3015 3014 3013 3012 3011 3010 3009 3007 3006 3004
3007 3008 3010 3011 3010 3011 3012 3011 3011 3008 3003 3003 3007 3009 3011 3012 3012 3014 3014 3012 3014 3017 3018 3018 3019 3020 3021 3022 3022 3024 3024 3023 3024 3025 3025 3024 3025 3025 3025 3026 3027 3027 3028 3028 3028 3028 3027 3027 3027 3026 3025 3025 3024 3024 3023 3023 3022 3022 3022 3022 3021 3021 3020 3020 3020 3019 3019 3018 3017 3016 3015 3015 3014 3013 3012 3011 3010 3009 3008 3007 3006 3005 3003 3002 3000 2999
3003 3005 3006 3006 3005 3006 3007 3006 3004 3002 3000 3002 3004 3005 3008 3008 3009 3012 3011 3007 3008 3012 3013 3013 3014 3015 3016 3017 3018 3019 3019 3019 3020 3020 3020 3020 3021 3021 3022 3022 3023 3023 3023 3023 3022 3022 3022 3022 3021 3021 3020 3020 3019 3018 3018 3018 3018 3018 3017 3017 3017 3017 3017 3016 3015 3015 3014 3013 3012 3011 3010 3010 3009 3008 3007 3006 3005 3004 3003 3002 3001 2999 2998 2997 2995 2994
2999 3000 3001 3002 3002 3003 3003 3001 2999 2998 2998 2999 3000 3002 3005 3005 3004 3005 3005 3003 3005 3008 3009 3010 3010 3010 3011 3012 3013 3014 3015 3015 3015 3015 3016 3016 3017 3017 3017 3018 3018 3017 3017 3017 3017 3017 3016 3016 3016 3015 3015 3015 3014 3014 3014 3014 3014 3014 3013 3013 3013 3013 3012 3011 3010 3010 3009 3008 3007 3006 3006 3005 3004 3003 3002 3001 3000 2999 2998 2997 2995 2994 2993 2991 2990 2988
2993 2995 2997 2998 2999 2999 2999 2999 2997 2994 2994 2995 2997 2998 3000 3000 2999 2998 2999 3001 3002 3003 3005 3007 3007 3007 3008 3008 3009 3010 3011 3011 3010 3010 3011 3012 3012 3013 3013 3012 3012 3011 3012 3012 3012 3011 3011 3011 3011 3011 3011 3010 3010 3010 3010 3009 3009 3009 3009 3008 3008 3008 3007 3006 3006 3005 3004 3003 3003 3002 3001 3000 2999 2998 2997 2996 2995 2994 2993 2991 2990 2989 2987 2986 2984 2983
2988 2991 2991 2992 2994 2995 2996 2996 2993 2988 2988 2991 2993 2994 2995 2996 2995 2995 2996 2998 2998 3000 3002 3003 3004 3005 3005 3005 3006 3006 3006 3006 3006 3006 3006 3006 3007 3007 3007 3006 3007 3006 3006 3007 3007 3006 3006 3006 3006 3006 3006 3006 3005 3005 3005 3005 3005 3005 3004 3004 3004 3003 3002 3002 3001 3000 2999 2999 2998 2997 2996 2995 2994 2993 2992 2991 2990 2989 2987 2986 2985 2983 2981 2980 2978 2977
2984 2985 2985 2986 2988 2989 2988 2987 2985 2983 2985 2989 2990 2991 2992 2992 2992 2993 2994 2994 2996 2997 2998 2999 3000 3001 3001 3001 3002 3003 3002 3002 3002 3001 3001 3001 3001 3002 3002 3002 3002 3001 3001 3002 3002 3002 3001 3001 3001 3002 3001 3001 3001 3001 3001 3000 3000 3000 2999 2999 2999 2998 2997 2997 2996 2995 2994 2994 2993 2992 2991 2990 2989 2988 2987 2985 2984 2983 2981 2980 2979 2977 2976 2974 2973 2971
2979 2979 2980 2981 2982 2981 2980 2980 2980 2982 2984 2987 2987 2987 2988 2988 2989 2990 2990 2991 2993 2993 2994 2996 2996 2996 2997 2998 2998 2998 2998 2998 2997 2997 2997 2997 2997 2997 2997 2997 2997 2997 2997 2997 2996 2996 2996 2996 2996 2996 2996 2996 2996 2996 2996 2996 2995 2995 2994 2994 2993 2993 2992 2992 2991 2990 2989 2988 2987 2986 2985 2984 2983 2982 2981 2980 2978 2977 2976 2974 2973 2972 2970 2969 2967 2966
2975 2975 2976 2976 2977 2977 2976 2977 2978 2980 2982 2983 2983 2984 2984 2984 2986 2986 2987 2988 2989 2990 2991 2992 2992 2992 2993 2994 2994 2994 2994 2994 2994 2993 2993 2993 2994 2994 2993 2993 2993 2992 2992 2992 2992 2991 2991 2991 2991 2991 2991 2991 2991 2991 2991 2990 2990 2989 2989 2989 2988 2987 2987 2986 2985 2985 2984 2983 2982 2981 2980 2979 2978 2977 2976 2974 2973 2972 2970 2969 2968 2966 2965 2963 2962 2960
2970 2972 2972 2971 2972 2972 2972 2973 2974 2977 2978 2979 2979 2980 2980 2981 2982 2983 2983 2985 2985 2986 2987 2987 2988 2989 2989 2989 2989 2989 2989 2989 2989 2989 2989 2989 2989 2989 2989 2989 2989 2988 2988 2987 2987 2987 2986 2986 2986 2986 2986 2986 2986 2985 2985 2985 2984 2984 2984 2983 2983 2982 2981 2981 2980 2979 2978 2977 2976 2975 2974 2973 2972 2971 2970 2969 2968 2966 2965 2964 2962 2961 2959 2958 2956 2955
2966 2968 2968 2967 2968 2968 2968 2969 2971 2973 2974 2975 2976 2976 2977 2978 2978 2979 2980 2981 2981 2982 2983 2983 2984 2985 2985 2985 2985 2984 2984 2984 2984 2984 2985 2985 2984 2985 2985 2984 2984 2984 2983 2983 2982 2982 2981 2981 2981 2981 2981 2980 2980 2980 2980 2979 2979 2979 2978 2978 2977 2977 2976 2975 2975 2974 2973 2972 2971 2970 2969 2968 2967 2965 2964 2963 2962 2961 2959 2958 2957 2956 2954 2952 2951 2949
2963 2963 2963 2963 2964 2964 2964 2966 2968 2969 2970 2972 2972 2973 2974 2974 2975 2976 2977 2977 2978 2978 2979 2979 2980 2980 2980 2980 2979 2979 2979 2980 2980 2980 2980 2980 2980 2980 2980 2980 2980 2980 2979 2979 2978 2977 2977 2976 2976 2976 2975 2975 2975 2975 2974 2974 2974 2973 2973 2972 2972 2971 2971 2970 2969 2968 2967 2966 2965 2964 2963 2962 2961 2960 2958 2957 2956 2955 2954 2952 2951 2950 2948 2947 2945 2944
2959 2959 2959 2960 2959 2958 2960 2963 2966 2966 2967 2968 2969 2970 2970 2971 2971 2972 2973 2974 2974 2975 2975 2975 2975 2975 2975 2975 2974 2974 2975 2975 2976 2975 2975 2975 2976 2976 2975 2975 2975 2975 2975 2974 2973 2972 2972 2972 2971 2971 2970 2970 2970 2969 2969 2969 2969 2968 2968 2967 2966 2966 2965 2964 2964 2963 2962 2961 2960 2958 2957 2956 2955 2954 2953 2951 2950 2949 2948 2947 2945 2944 2942 2941 2939 2938
2954 2956 2957 2956 2955 2955 2958 2961 2963 2963 2964 2965 2966 2966 2966 2967 2968 2968 2969 2969 2970 2970 2970 2970 2970 2970 2970 2970 2970 2970 2970 2970 2970 2970 2970 2970 2971 2971 2971 2971 2970 2970 2970 2969 2968 2967 2967 2967 2966 2966 2965 2965 2965 2964 2964 2963 2963 2962 2962 2961 2961 2960 2960 2959 2958 2957 2956 2955 2954 2952 2951 2950 2949 2948 2947 2946 2944 2943 2942 2940 2939 2937 2936 2935 2934 2932